PAS221 LDZD-EPWR

Flight info

Callsign PAS221
Flight time 1h 10m
Altitude 32000
Route RAVNA L607 ULPIN DCT LAPNA DCT LEDVA DCT REGLI L617 EPOPA
Aircraft B738/M-SDE2E3FGHIRWXY/LB1

Departure

Time 2026-05-05 15:03
Airport Zadar Airport (LDZD)

Arrival

Time 2026-05-05 16:14
Airport Copernicus Wrocław Airport (EPWR)
Time Latitude Longitude Altitude Speed Heading
2026-05-05 14:42 44.09667 15.35433 269 ft 0 kts 325°
2026-05-05 14:56 44.09674 15.35438 269 ft 1 kts 35°
2026-05-05 14:56 44.09685 15.35469 269 ft 7 kts 62°
2026-05-05 14:57 44.09741 15.35534 269 ft 14 kts 13°
2026-05-05 14:57 44.09866 15.35525 269 ft 22 kts 351°
2026-05-05 14:57 44.10003 15.35388 269 ft 27 kts 315°
2026-05-05 14:57 44.10141 15.35198 269 ft 27 kts 315°
2026-05-05 14:58 44.10271 15.35020 269 ft 25 kts 315°
2026-05-05 14:58 44.10393 15.34855 269 ft 24 kts 316°
2026-05-05 14:58 44.10508 15.34701 269 ft 23 kts 315°
2026-05-05 14:58 44.10618 15.34550 269 ft 22 kts 315°
2026-05-05 14:59 44.10726 15.34404 269 ft 21 kts 316°
2026-05-05 14:59 44.10831 15.34262 269 ft 21 kts 316°
2026-05-05 14:59 44.10933 15.34125 269 ft 20 kts 316°
2026-05-05 14:59 44.11031 15.33991 269 ft 19 kts 315°
2026-05-05 15:00 44.11126 15.33862 269 ft 19 kts 315°
2026-05-05 15:00 44.11188 15.33778 269 ft 19 kts 315°
2026-05-05 15:00 44.11325 15.33590 269 ft 22 kts 315°
2026-05-05 15:00 44.11440 15.33438 268 ft 23 kts 316°
2026-05-05 15:01 44.11547 15.33417 268 ft 16 kts 56°
2026-05-05 15:01 44.11577 15.33471 266 ft 0 kts 48°
2026-05-05 15:01 44.11593 15.33496 264 ft 8 kts 48°
2026-05-05 15:02 44.11622 15.33572 259 ft 5 kts 88°
2026-05-05 15:02 44.11602 15.33626 259 ft 0 kts 135°
2026-05-05 15:03 44.11548 15.33700 260 ft 44 kts 135°
2026-05-05 15:03 44.11076 15.34340 262 ft 142 kts 135°
2026-05-05 15:03 44.10290 15.35529 859 ft 183 kts 131°
2026-05-05 15:03 44.09366 15.36780 2183 ft 184 kts 140°
2026-05-05 15:04 44.07352 15.39393 3862 ft 224 kts 139°
2026-05-05 15:04 44.06210 15.40901 4545 ft 230 kts 139°
2026-05-05 15:04 44.05036 15.42471 5169 ft 239 kts 139°
2026-05-05 15:05 44.03810 15.47222 6456 ft 269 kts 75°
2026-05-05 15:05 44.04684 15.49571 6864 ft 284 kts 47°
2026-05-05 15:05 44.05675 15.50784 7225 ft 291 kts 30°
2026-05-05 15:06 44.07550 15.51711 8098 ft 288 kts
2026-05-05 15:06 44.09501 15.51369 8761 ft 282 kts 337°
2026-05-05 15:06 44.11308 15.50294 8992 ft 284 kts 331°
2026-05-05 15:06 44.13098 15.49111 8999 ft 285 kts 331°
2026-05-05 15:07 44.14897 15.47956 9003 ft 284 kts 331°
2026-05-05 15:07 44.16535 15.46484 9032 ft 280 kts 313°
2026-05-05 15:07 44.17925 15.44561 9693 ft 284 kts 311°
2026-05-05 15:07 44.19322 15.42612 10608 ft 289 kts 311°
2026-05-05 15:08 44.20808 15.40545 10883 ft 316 kts 312°
2026-05-05 15:08 44.22434 15.38300 11081 ft 342 kts 312°
2026-05-05 15:08 44.24177 15.35913 11432 ft 357 kts 313°
2026-05-05 15:08 44.25973 15.33460 12031 ft 364 kts 313°
2026-05-05 15:09 44.27786 15.30976 12743 ft 367 kts 312°
2026-05-05 15:09 44.29468 15.28282 13411 ft 370 kts 306°
2026-05-05 15:09 44.31061 15.25430 14056 ft 374 kts 305°
2026-05-05 15:09 44.32655 15.22539 14674 ft 378 kts 305°
2026-05-05 15:10 44.34262 15.19621 15324 ft 380 kts 305°
2026-05-05 15:10 44.35885 15.16685 15930 ft 384 kts 305°
2026-05-05 15:10 44.37528 15.13722 16524 ft 388 kts 305°
2026-05-05 15:10 44.39189 15.10729 17114 ft 391 kts 306°
2026-05-05 15:11 44.40862 15.07719 17702 ft 394 kts 306°
2026-05-05 15:11 44.42553 15.04675 18280 ft 398 kts 306°
2026-05-05 15:11 44.44233 15.01649 18768 ft 401 kts 306°
2026-05-05 15:11 44.45970 14.98517 19289 ft 404 kts 306°
2026-05-05 15:12 44.47672 14.95444 19827 ft 406 kts 306°
2026-05-05 15:12 44.49408 14.92307 20332 ft 409 kts 305°
2026-05-05 15:12 44.51155 14.89147 20813 ft 411 kts 305°
2026-05-05 15:12 44.52950 14.86015 21273 ft 415 kts 309°
2026-05-05 15:13 44.55061 14.83208 21719 ft 421 kts 317°
2026-05-05 15:13 44.57334 14.80600 22179 ft 424 kts 318°
2026-05-05 15:13 44.59632 14.77991 22601 ft 426 kts 318°
2026-05-05 15:13 44.61933 14.75345 23025 ft 429 kts 317°
2026-05-05 15:14 44.64232 14.72663 23444 ft 431 kts 317°
2026-05-05 15:14 44.66550 14.69962 23807 ft 435 kts 320°
2026-05-05 15:14 44.69218 14.67903 24122 ft 445 kts 338°
2026-05-05 15:14 44.72277 14.67089 24504 ft 453 kts 354°
2026-05-05 15:15 44.75428 14.67504 24850 ft 461 kts 12°
2026-05-05 15:15 44.78510 14.68814 25193 ft 464 kts 15°
2026-05-05 15:15 44.81588 14.70263 25459 ft 468 kts 16°
2026-05-05 15:15 44.84674 14.71758 25761 ft 470 kts 16°
2026-05-05 15:16 44.87773 14.73256 26076 ft 472 kts 16°
2026-05-05 15:16 44.90886 14.74743 26383 ft 473 kts 16°
2026-05-05 15:16 44.94017 14.76218 26690 ft 475 kts 16°
2026-05-05 15:16 44.97158 14.77682 27000 ft 476 kts 15°
2026-05-05 15:17 45.00308 14.79141 27285 ft 478 kts 15°
2026-05-05 15:17 45.03477 14.80605 27539 ft 480 kts 15°
2026-05-05 15:17 45.06655 14.82073 27789 ft 482 kts 15°
2026-05-05 15:17 45.09849 14.83551 28038 ft 484 kts 15°
2026-05-05 15:18 45.13054 14.85036 28279 ft 486 kts 16°
2026-05-05 15:18 45.16271 14.86529 28557 ft 487 kts 16°
2026-05-05 15:18 45.19487 14.88025 28943 ft 485 kts 16°
2026-05-05 15:18 45.22686 14.89516 29367 ft 484 kts 16°
2026-05-05 15:19 45.25882 14.91007 29751 ft 483 kts 15°
2026-05-05 15:19 45.29070 14.92495 30082 ft 483 kts 16°
2026-05-05 15:19 45.32258 14.93985 30395 ft 482 kts 15°
2026-05-05 15:19 45.35438 14.95473 30742 ft 480 kts 15°
2026-05-05 15:20 45.38604 14.96956 31121 ft 478 kts 15°
2026-05-05 15:20 45.41759 14.98436 31472 ft 476 kts 15°
2026-05-05 15:20 45.44901 14.99911 31783 ft 475 kts 15°
2026-05-05 15:20 45.48040 15.01387 32008 ft 475 kts 15°
2026-05-05 15:21 45.51187 15.02867 31998 ft 476 kts 15°
2026-05-05 15:21 45.57464 15.05826 31998 ft 474 kts 15°
2026-05-05 15:22 45.63719 15.08782 31990 ft 473 kts 15°
2026-05-05 15:22 45.69961 15.11739 31987 ft 472 kts 15°
2026-05-05 15:23 45.76159 15.14681 31976 ft 473 kts 16°
2026-05-05 15:23 45.82406 15.17654 31978 ft 474 kts 16°
2026-05-05 15:24 45.88669 15.20642 31975 ft 475 kts 16°
2026-05-05 15:24 45.94944 15.23643 31978 ft 476 kts 16°
2026-05-05 15:25 46.01241 15.26661 31975 ft 478 kts 16°
2026-05-05 15:25 46.07563 15.29699 31973 ft 479 kts 16°
2026-05-05 15:26 46.13891 15.32747 31968 ft 480 kts 16°
2026-05-05 15:26 46.20230 15.35809 31957 ft 481 kts 17°
2026-05-05 15:27 46.26571 15.38878 31954 ft 481 kts 17°
2026-05-05 15:27 46.32913 15.41956 31944 ft 481 kts 17°
2026-05-05 15:28 46.39253 15.45040 31943 ft 481 kts 17°
2026-05-05 15:28 46.45600 15.48135 31936 ft 481 kts 16°
2026-05-05 15:29 46.51945 15.51237 31938 ft 481 kts 17°
2026-05-05 15:29 46.58258 15.54486 31939 ft 481 kts 19°
2026-05-05 15:30 46.64500 15.57998 31932 ft 481 kts 19°
2026-05-05 15:30 46.70701 15.61516 31932 ft 481 kts 19°
2026-05-05 15:31 46.76952 15.65027 31894 ft 481 kts 19°
2026-05-05 15:31 46.83207 15.68525 31894 ft 481 kts 19°
2026-05-05 15:32 46.89454 15.72022 31884 ft 481 kts 19°
2026-05-05 15:32 46.95697 15.75527 31880 ft 480 kts 19°
2026-05-05 15:33 47.01920 15.79031 31888 ft 480 kts 19°
2026-05-05 15:33 47.08163 15.82554 31885 ft 480 kts 19°
2026-05-05 15:34 47.14395 15.86081 31877 ft 481 kts 19°
2026-05-05 15:34 47.20639 15.89623 31869 ft 481 kts 19°
2026-05-05 15:35 47.26880 15.93173 31869 ft 481 kts 19°
2026-05-05 15:35 47.33099 15.96719 31862 ft 482 kts 19°
2026-05-05 15:36 47.39363 16.00300 31858 ft 483 kts 19°
2026-05-05 15:36 47.45633 16.03895 31843 ft 484 kts 19°
2026-05-05 15:37 47.51908 16.07501 31843 ft 484 kts 19°
2026-05-05 15:37 47.58191 16.11119 31833 ft 484 kts 19°
2026-05-05 15:38 47.64481 16.14750 31823 ft 487 kts 19°
2026-05-05 15:38 47.70824 16.18423 31816 ft 491 kts 19°
2026-05-05 15:39 47.77159 16.22104 31791 ft 486 kts 19°
2026-05-05 15:39 47.83425 16.25752 31789 ft 481 kts 19°
2026-05-05 15:40 47.89555 16.29330 31781 ft 477 kts 19°
2026-05-05 15:40 47.95776 16.32970 31783 ft 477 kts 19°
2026-05-05 15:41 48.01892 16.36558 31775 ft 476 kts 19°
2026-05-05 15:41 48.08061 16.40186 31775 ft 476 kts 19°
2026-05-05 15:42 48.14232 16.43824 31776 ft 476 kts 19°
2026-05-05 15:42 48.20396 16.47468 31776 ft 476 kts 19°
2026-05-05 15:43 48.26560 16.51122 31772 ft 476 kts 19°
2026-05-05 15:43 48.32723 16.54784 31765 ft 476 kts 19°
2026-05-05 15:44 48.38882 16.58453 31764 ft 476 kts 19°
2026-05-05 15:44 48.45040 16.62133 31763 ft 476 kts 19°
2026-05-05 15:45 48.51198 16.65821 31761 ft 476 kts 19°
2026-05-05 15:45 48.57351 16.69516 31759 ft 476 kts 19°
2026-05-05 15:46 48.63502 16.73220 31761 ft 476 kts 19°
2026-05-05 15:46 48.69649 16.76931 31765 ft 475 kts 19°
2026-05-05 15:47 48.75663 16.81112 31769 ft 477 kts 28°
2026-05-05 15:47 48.81327 16.86261 31767 ft 477 kts 30°
2026-05-05 15:48 48.86982 16.91532 31779 ft 477 kts 29°
2026-05-05 15:48 48.92650 16.96741 31777 ft 476 kts 28°
2026-05-05 15:49 48.98331 17.01912 31778 ft 475 kts 28°
2026-05-05 15:49 49.03966 17.07040 31785 ft 475 kts 28°
2026-05-05 15:50 49.09639 17.12220 31788 ft 475 kts 28°
2026-05-05 15:50 49.15304 17.17409 31784 ft 475 kts 29°
2026-05-05 15:51 49.20965 17.22609 31793 ft 474 kts 29°
2026-05-05 15:51 49.26614 17.27813 31794 ft 474 kts 29°
2026-05-05 15:52 49.32263 17.33032 31798 ft 474 kts 30°
2026-05-05 15:52 49.37909 17.38262 31802 ft 474 kts 30°
2026-05-05 15:53 49.43557 17.43507 31802 ft 474 kts 30°
2026-05-05 15:53 49.48279 17.47902 31804 ft 474 kts 30°
2026-05-05 15:54 49.53852 17.53104 31805 ft 474 kts 30°
2026-05-05 15:54 49.59496 17.58385 31798 ft 474 kts 30°
2026-05-05 15:55 49.65132 17.63677 31810 ft 475 kts 30°
2026-05-05 15:55 49.70774 17.68985 31800 ft 475 kts 30°
2026-05-05 15:56 49.76417 17.74311 31813 ft 476 kts 30°
2026-05-05 15:56 49.82069 17.79660 31796 ft 476 kts 30°
2026-05-05 15:57 49.87722 17.85024 31591 ft 479 kts 30°
2026-05-05 15:57 49.90584 17.87746 30781 ft 482 kts 30°
2026-05-05 15:57 49.93432 17.90457 29957 ft 481 kts 31°
2026-05-05 15:57 49.96284 17.93177 28938 ft 482 kts 30°
2026-05-05 15:58 49.99165 17.95833 27920 ft 481 kts 25°
2026-05-05 15:58 50.02333 17.97404 26899 ft 477 kts
2026-05-05 15:58 50.05632 17.97620 25813 ft 475 kts 353°
2026-05-05 15:58 50.08842 17.96509 24850 ft 470 kts 339°
2026-05-05 15:59 50.11880 17.94739 24083 ft 464 kts 336°
2026-05-05 15:59 50.14872 17.92918 23259 ft 460 kts 337°
2026-05-05 15:59 50.17837 17.91115 22374 ft 455 kts 337°
2026-05-05 15:59 50.20777 17.89356 21553 ft 450 kts 338°
2026-05-05 16:00 50.23688 17.87644 20773 ft 444 kts 338°
2026-05-05 16:00 50.26569 17.85964 20012 ft 440 kts 338°
2026-05-05 16:00 50.29423 17.84305 19250 ft 435 kts 338°
2026-05-05 16:00 50.32251 17.82659 18513 ft 432 kts 338°
2026-05-05 16:01 50.35033 17.81036 17694 ft 430 kts 338°
2026-05-05 16:01 50.37799 17.79323 16839 ft 425 kts 333°
2026-05-05 16:01 50.40406 17.77213 16039 ft 421 kts 328°
2026-05-05 16:01 50.42928 17.74902 15269 ft 417 kts 327°
2026-05-05 16:02 50.45373 17.72596 14535 ft 414 kts 327°
2026-05-05 16:02 50.47857 17.70276 13784 ft 412 kts 327°
2026-05-05 16:02 50.50290 17.68043 12977 ft 411 kts 327°
2026-05-05 16:02 50.52757 17.65813 12213 ft 407 kts 328°
2026-05-05 16:03 50.55206 17.63618 11499 ft 404 kts 328°
2026-05-05 16:03 50.57624 17.61458 10957 ft 396 kts 328°
2026-05-05 16:03 50.60009 17.59327 10409 ft 391 kts 328°
2026-05-05 16:03 50.62365 17.57214 9963 ft 389 kts 328°
2026-05-05 16:04 50.64653 17.55163 9999 ft 368 kts 328°
2026-05-05 16:04 50.66826 17.53215 9992 ft 352 kts 328°
2026-05-05 16:04 50.68925 17.51328 9720 ft 343 kts 328°
2026-05-05 16:04 50.70970 17.49487 9463 ft 335 kts 328°
2026-05-05 16:05 50.72968 17.47686 9197 ft 327 kts 328°
2026-05-05 16:05 50.74920 17.45924 8938 ft 321 kts 328°
2026-05-05 16:05 50.76841 17.44190 8674 ft 315 kts 328°
2026-05-05 16:05 50.78699 17.42511 8574 ft 297 kts 328°
2026-05-05 16:06 50.80439 17.40942 8356 ft 284 kts 328°
2026-05-05 16:06 50.82159 17.39379 7968 ft 286 kts 328°
2026-05-05 16:06 50.83923 17.37912 7626 ft 288 kts 339°
2026-05-05 16:06 50.85916 17.37575 7268 ft 293 kts
2026-05-05 16:07 50.87832 17.38585 6945 ft 291 kts 26°
2026-05-05 16:07 50.89631 17.39988 6607 ft 284 kts 25°
2026-05-05 16:07 50.91513 17.40737 6241 ft 279 kts 359°
2026-05-05 16:07 50.93356 17.40046 5887 ft 271 kts 330°
2026-05-05 16:08 50.94761 17.38266 5566 ft 263 kts 309°
2026-05-05 16:08 50.95737 17.35855 5234 ft 258 kts 296°
2026-05-05 16:08 50.96527 17.33310 4952 ft 258 kts 294°
2026-05-05 16:08 50.97299 17.30731 4648 ft 260 kts 294°
2026-05-05 16:09 50.98076 17.28147 4332 ft 258 kts 295°
2026-05-05 16:09 50.98898 17.25626 4040 ft 255 kts 297°
2026-05-05 16:09 50.99712 17.23135 3738 ft 253 kts 296°
2026-05-05 16:09 51.00491 17.20632 3453 ft 252 kts 296°
2026-05-05 16:10 51.01251 17.18142 3151 ft 250 kts 296°
2026-05-05 16:10 51.02011 17.15657 2862 ft 249 kts 297°
2026-05-05 16:10 51.02760 17.13173 2569 ft 250 kts 297°
2026-05-05 16:10 51.03510 17.10700 2348 ft 245 kts 297°
2026-05-05 16:11 51.04233 17.08326 2290 ft 231 kts 299°
2026-05-05 16:11 51.06198 17.01883 2059 ft 210 kts 299°
2026-05-05 16:12 51.06821 16.99842 1805 ft 203 kts 299°
2026-05-05 16:12 51.07954 16.96140 1305 ft 175 kts 299°
2026-05-05 16:13 51.09356 16.91605 873 ft 137 kts 298°
2026-05-05 16:13 51.09736 16.90320 584 ft 119 kts 298°
2026-05-05 16:13 51.10088 16.89188 405 ft 111 kts 298°
2026-05-05 16:14 51.10621 16.87446 402 ft 36 kts 296°
2026-05-05 16:14 51.10749 16.87253 401 ft 9 kts 32°
2026-05-05 16:15 51.10907 16.87389 402 ft 18 kts 25°
2026-05-05 16:15 51.10854 16.87781 402 ft 23 kts 115°
2026-05-05 16:16 51.10866 16.87986 402 ft 0 kts 27°
2026-05-05 16:16 51.10871 16.87990 402 ft 0 kts 29°